Weather History for Syracuse, NY

Change the Weather History Date:

Friday, November 30, 2012

  Actual Average Record
Temperature  
Mean Temperature 30 °F 35 °F  
Max Temperature 35 °F 42 °F 67 °F (1998)
Min Temperature 25 °F 28 °F 5 °F (1976)
Degree Days  
Heating Degree Days 35 30  
Month to date heating degree days 762 732  
Since 1 July heating degree days 1205 1349  
Cooling Degree Days 0 0  
Month to date cooling degree days 0 0  
Year to date cooling degree days 953 569  
Moisture  
Dew Point 20 °F    
Average Humidity 72    
Maximum Humidity 81    
Minimum Humidity 63    
Precipitation  
Precipitation 0.01 in 0.12 in 2.07 in (1944)
Month to date precipitation 1.41 3.53  
Year to date precipitation 27.54 35.25  
Snow  
Snow 0.10 in 0.60 in 4.50 in (1958)
Month to date snowfall 2.8 9.5  
Since 1 July snowfall 2.8 9.9  
Since 1 September snowfall 2.8 9.9  
Snow Depth 0.00 in    
Sea Level Pressure  
Sea Level Pressure 30.40 in    
Wind  
Wind Speed 7 mph (NE)    
Max Wind Speed 14 mph    
Max Gust Speed 17 mph    
Visibility 9 miles    
Events Rain , Snow    
T = Trace of Precipitation, MM = Missing Value Source: NWS Daily Summary

Daily Weather History Graph

Daily Weather History Graph

Search for Another Location

Airport:

Trip Planner

Search our weather history database for the weather conditions in past years. The results will help you decide how hot, cold, wet, or windy it might be!

Date:

Astronomy

Nov. 30, 2012 Rise Set
Actual Time 7:15 AM EST 4:30 PM EST
Civil Twilight 6:43 AM EST 5:02 PM EST
Nautical Twilight 6:08 AM EST 5:37 PM EST
Astronomical Twilight 5:34 AM EST 6:12 PM EST
Moon 6:23 PM EST 8:45 AM EST
Length of Visible Light 10h 18m
Length of Day
9h 14m
Waning Gibbous, 96% of the Moon is Illuminated
Nov 30
Waning Gibbous
Dec 6
Last Quarter
Dec 13
New
Dec 20
First Quarter
Dec 28
Full

Hourly Weather History & Observations

Time (EST) Temp. Windchill Dew Point Humidity Pressure Visibility Wind Dir Wind Speed Gust Speed Precip Events Conditions
12:54 AM 30.9 °F 23.5 °F 26.1 °F 82% 30.30 in 7.0 mi NW 8.1 mph - 0.00 in Snow Light Snow
1:01 AM 30.2 °F 25.4 °F 26.6 °F 86% 30.30 in 5.0 mi NW 4.6 mph - 0.00 in Rain Light Freezing Rain
1:54 AM 30.0 °F 25.2 °F 27.0 °F 88% 30.32 in 9.0 mi NW 4.6 mph - 0.00 in Rain Light Freezing Rain
2:09 AM 30.2 °F 25.4 °F 26.6 °F 86% 30.33 in 10.0 mi WNW 4.6 mph - 0.00 in   Light Freezing Drizzle
2:54 AM 30.0 °F 25.2 °F 25.0 °F 82% 30.35 in 10.0 mi NNW 4.6 mph - 0.00 in   Overcast
3:20 AM 30.2 °F 25.4 °F 24.8 °F 80% 30.35 in 10.0 mi NW 4.6 mph - N/A   Overcast
3:54 AM 28.9 °F 22.8 °F 23.0 °F 78% 30.36 in 10.0 mi NW 5.8 mph - N/A   Overcast
4:10 AM 28.4 °F 22.2 °F 23.0 °F 80% 30.36 in 10.0 mi NW 5.8 mph - N/A   Overcast
4:54 AM 30.0 °F 26.5 °F 23.0 °F 75% 30.37 in 10.0 mi North 3.5 mph - N/A   Overcast
5:54 AM 28.9 °F 21.9 °F 21.9 °F 75% 30.38 in 10.0 mi East 6.9 mph - N/A   Overcast
6:44 AM 28.4 °F 21.2 °F 19.4 °F 69% 30.39 in 10.0 mi NE 6.9 mph - N/A   Overcast
6:54 AM 28.9 °F 22.8 °F 19.0 °F 67% 30.40 in 10.0 mi NE 5.8 mph - N/A   Overcast
7:20 AM 28.4 °F 21.2 °F 17.6 °F 64% 30.41 in 10.0 mi NE 6.9 mph - N/A   Overcast
7:54 AM 28.0 °F 21.7 °F 17.1 °F 63% 30.42 in 10.0 mi ENE 5.8 mph - N/A   Overcast
8:54 AM 28.0 °F 22.8 °F 18.0 °F 66% 30.43 in 10.0 mi ENE 4.6 mph - N/A   Overcast
9:54 AM 28.0 °F 21.7 °F 17.1 °F 63% 30.44 in 10.0 mi ENE 5.8 mph - N/A   Overcast
10:54 AM 28.0 °F 22.8 °F 17.1 °F 63% 30.44 in 10.0 mi ENE 4.6 mph - N/A   Overcast
11:54 AM 28.0 °F 20.8 °F 17.1 °F 63% 30.42 in 10.0 mi ENE 6.9 mph - N/A   Overcast
12:54 PM 28.0 °F 21.7 °F 17.1 °F 63% 30.42 in 10.0 mi East 5.8 mph - N/A   Overcast
1:54 PM 28.9 °F 23.9 °F 18.0 °F 64% 30.41 in 10.0 mi ENE 4.6 mph - 0.00 in Snow Light Snow
2:39 PM 28.4 °F 21.2 °F 19.4 °F 69% 30.40 in 9.0 mi ENE 6.9 mph - 0.00 in Snow Light Snow
2:54 PM 28.9 °F 21.9 °F 19.0 °F 67% 30.41 in 9.0 mi ENE 6.9 mph - 0.00 in Snow Light Snow
3:09 PM 28.4 °F 21.2 °F 19.4 °F 69% 30.40 in 9.0 mi ENE 6.9 mph - 0.00 in Snow Light Snow
3:54 PM 28.9 °F 22.8 °F 19.9 °F 69% 30.41 in 9.0 mi ENE 5.8 mph - 0.00 in   Overcast
4:54 PM 28.0 °F 19.3 °F 21.0 °F 75% 30.41 in 6.0 mi ENE 9.2 mph - 0.00 in Snow Light Snow
5:17 PM 28.4 °F 19.1 °F 21.2 °F 74% 30.40 in 3.0 mi ENE 10.4 mph - 0.00 in Snow Light Snow
5:54 PM 27.0 °F 18.0 °F 21.0 °F 78% 30.41 in 9.0 mi ENE 9.2 mph - 0.01 in Snow Light Snow
6:32 PM 26.6 °F 19.1 °F 21.2 °F 80% 30.41 in 9.0 mi ENE 6.9 mph - 0.00 in Snow Light Snow
6:54 PM 27.0 °F 18.0 °F 19.9 °F 75% 30.42 in 9.0 mi East 9.2 mph - 0.00 in Snow Light Snow
7:54 PM 26.1 °F 16.8 °F 19.0 °F 75% 30.43 in 9.0 mi ENE 9.2 mph - 0.00 in Snow Light Snow
8:09 PM 26.6 °F 16.2 °F 19.4 °F 74% 30.43 in 3.0 mi ENE 11.5 mph - 0.00 in Snow Light Snow
8:19 PM 24.8 °F 15.3 °F 19.4 °F 80% 30.42 in 3.0 mi East 9.2 mph - 0.00 in Snow Light Snow
8:54 PM 25.0 °F 15.5 °F 19.0 °F 78% 30.43 in 4.0 mi ENE 9.2 mph - 0.00 in Snow Light Snow
9:54 PM 25.0 °F 14.2 °F 19.0 °F 78% 30.42 in 10.0 mi ENE 11.5 mph - 0.00 in Snow Light Snow
10:54 PM 26.1 °F 16.8 °F 17.1 °F 69% 30.41 in 9.0 mi East 9.2 mph - 0.00 in   Overcast
11:54 PM 27.0 °F 18.0 °F 17.1 °F 66% 30.41 in 10.0 mi ENE 9.2 mph - N/A   Overcast